Weather History for KOGA - July, 2014

Change the Weather History Date:

Thursday, July 10, 2014

  Actual Average Record
Temperature  
Mean Temperature 76 °F -  
Max Temperature 92 °F 91 °F 105 °F (1954)
Min Temperature 61 °F 60 °F 48 °F (1999)
Cooling Degree Days 11    
Growing Degree Days 26 (Base 50)    
Moisture  
Dew Point 61 °F    
Average Humidity 63    
Maximum Humidity 91    
Minimum Humidity 32    
Precipitation  
Precipitation 0.00 in - - ()
Sea Level Pressure  
Sea Level Pressure 29.94 in    
Wind  
Wind Speed 12 mph (SSE)    
Max Wind Speed 22 mph    
Max Gust Speed 34 mph    
Visibility 10 miles    
Events Rain , Thunderstorm    
Averages and records for this station are not official NWS values.
T = Trace of Precipitation, MM = Missing Value Source: NWS Daily Summary

Daily Weather History Graph

Daily Weather History Graph

Search for Another Location

Airport or City:

Trip Planner

Search our weather history database for the weather conditions in past years. The results will help you decide how hot, cold, wet, or windy it might be!

Date:

Astronomy

Jul. 10, 2014 Rise Set
Actual Time 5:23 AM MDT 8:20 PM MDT
Civil Twilight 4:50 AM MDT 8:53 PM MDT
Nautical Twilight 4:08 AM MDT 9:35 PM MDT
Astronomical Twilight 3:20 AM MDT 10:24 PM MDT
Moon 6:35 PM MDT (7/10) 3:37 AM MDT (7/10)
Length of Visible Light 16h 02m
Length of Day
14h 57m
Waxing Gibbous, 96% of the Moon is Illuminated
Jul 10
Waxing Gibbous
Jul 12
Full
Jul 18
Last Quarter
Jul 26
New
Aug 3
First Quarter

Hourly Weather History & Observations

Time (MDT) Temp. Heat Index Dew Point Humidity Pressure Visibility Wind Dir Wind Speed Gust Speed Precip Events Conditions
12:15 AM 67.6 °F - 60.8 °F 79% 29.95 in 10.0 mi East 10.4 mph 17.3 mph N/A   Clear
12:35 AM 65.8 °F - 60.1 °F 82% 29.95 in 10.0 mi East 10.4 mph - N/A   Clear
12:55 AM 65.3 °F - 60.1 °F 83% 29.95 in 10.0 mi East 10.4 mph - N/A   Clear
1:15 AM 64.9 °F - 59.9 °F 84% 29.96 in 10.0 mi East 10.4 mph - N/A   Clear
1:35 AM 65.3 °F - 58.8 °F 80% 29.95 in 10.0 mi ESE 10.4 mph - N/A   Clear
1:55 AM 66.0 °F - 58.8 °F 78% 29.95 in 10.0 mi SE 12.7 mph 18.4 mph N/A   Clear
2:15 AM 64.9 °F - 58.6 °F 80% 29.96 in 10.0 mi SE 11.5 mph - N/A   Clear
2:35 AM 62.6 °F - 58.5 °F 86% 29.96 in 10.0 mi SE 10.4 mph 19.6 mph N/A   Scattered Clouds
2:55 AM 61.9 °F - 58.6 °F 89% 29.96 in 10.0 mi SE 12.7 mph 17.3 mph N/A   Scattered Clouds
3:15 AM 62.6 °F - 59.2 °F 89% 29.97 in 10.0 mi SE 13.8 mph 21.9 mph N/A   Mostly Cloudy
3:35 AM 63.0 °F - 59.4 °F 88% 29.97 in 10.0 mi SE 15.0 mph 21.9 mph N/A   Overcast
3:55 AM 63.0 °F - 59.4 °F 88% 29.97 in 10.0 mi SSE 13.8 mph 24.2 mph N/A   Overcast
4:15 AM 62.8 °F - 59.4 °F 89% 29.97 in 10.0 mi SSE 12.7 mph 26.5 mph N/A   Overcast
4:35 AM 62.6 °F - 59.4 °F 89% 29.96 in 10.0 mi SSE 16.1 mph 21.9 mph N/A   Overcast
4:55 AM 62.6 °F - 59.5 °F 90% 29.97 in 10.0 mi South 13.8 mph 24.2 mph N/A   Overcast
5:15 AM 62.4 °F - 59.9 °F 91% 29.98 in 10.0 mi South 17.3 mph 25.3 mph N/A   Overcast
5:35 AM 62.6 °F - 60.1 °F 91% 29.99 in 10.0 mi South 12.7 mph 23.0 mph N/A   Overcast
5:55 AM 63.0 °F - 60.3 °F 91% 29.99 in 10.0 mi South 15.0 mph 23.0 mph N/A   Overcast
6:15 AM 63.5 °F - 60.8 °F 91% 29.99 in 10.0 mi South 11.5 mph 16.1 mph N/A   Overcast
6:35 AM 63.9 °F - 61.0 °F 90% 29.99 in 10.0 mi South 13.8 mph 20.7 mph N/A   Overcast
6:55 AM 64.0 °F - 61.2 °F 90% 29.98 in 10.0 mi South 13.8 mph 20.7 mph N/A   Overcast
7:15 AM 64.8 °F - 61.3 °F 89% 29.99 in 10.0 mi SSW 17.3 mph 20.7 mph N/A   Overcast
7:35 AM 65.3 °F - 61.3 °F 87% 30.00 in 10.0 mi SSW 11.5 mph 21.9 mph N/A   Overcast
7:55 AM 66.4 °F - 61.7 °F 85% 29.99 in 10.0 mi South 13.8 mph 18.4 mph N/A   Overcast
8:15 AM 68.2 °F - 61.7 °F 80% 29.99 in 10.0 mi SSW 10.4 mph - N/A   Overcast
8:35 AM 69.3 °F - 61.9 °F 77% 30.00 in 10.0 mi SSW 10.4 mph - N/A   Overcast
8:55 AM 69.1 °F - 61.3 °F 76% 30.00 in 10.0 mi South 11.5 mph 16.1 mph N/A   Mostly Cloudy
9:15 AM 71.4 °F - 62.1 °F 72% 29.99 in 10.0 mi SSW 9.2 mph - N/A   Scattered Clouds
9:35 AM 73.0 °F - 62.1 °F 68% 29.98 in 10.0 mi South 9.2 mph - N/A   Clear
9:55 AM 74.3 °F - 62.2 °F 66% 29.98 in 10.0 mi SSW 12.7 mph - N/A   Clear
10:15 AM 76.5 °F - 63.5 °F 64% 29.98 in 10.0 mi SSW 11.5 mph - N/A   Clear
10:35 AM 77.2 °F - 61.9 °F 59% 29.97 in 10.0 mi South 11.5 mph 16.1 mph N/A   Clear
10:55 AM 79.2 °F - 62.2 °F 56% 29.97 in 10.0 mi South 12.7 mph 17.3 mph N/A   Clear
11:15 AM 80.6 °F 81.7 °F 62.2 °F 53% 29.96 in 10.0 mi South 10.4 mph 20.7 mph N/A   Clear
11:35 AM 82.0 °F 82.8 °F 61.5 °F 50% 29.95 in 10.0 mi SSW 12.7 mph 18.4 mph N/A   Clear
11:55 AM 82.4 °F 83.0 °F 61.3 °F 49% 29.95 in 10.0 mi SSW 13.8 mph 19.6 mph N/A   Clear
12:15 PM 83.7 °F 83.9 °F 60.8 °F 46% 29.94 in 10.0 mi SSW 16.1 mph - N/A   Clear
12:35 PM 85.1 °F 85.2 °F 60.8 °F 44% 29.93 in 10.0 mi SSW 12.7 mph 21.9 mph N/A   Clear
12:55 PM 85.8 °F 85.9 °F 61.2 °F 43% 29.93 in 10.0 mi SSW 12.7 mph 18.4 mph N/A   Clear
1:15 PM 86.9 °F 86.7 °F 60.4 °F 41% 29.92 in 10.0 mi South 13.8 mph 18.4 mph N/A   Clear
1:35 PM 87.8 °F 87.6 °F 60.8 °F 40% 29.92 in 10.0 mi South 12.7 mph 18.4 mph N/A   Clear
1:55 PM 88.7 °F 88.3 °F 60.1 °F 38% 29.91 in 10.0 mi SSW 11.5 mph 16.1 mph N/A   Clear
2:15 PM 89.8 °F 88.9 °F 58.5 °F 35% 29.90 in 10.0 mi SSW 11.5 mph 18.4 mph N/A   Clear
2:35 PM 91.0 °F 90.2 °F 59.2 °F 34% 29.89 in 10.0 mi South 10.4 mph 16.1 mph N/A   Clear
2:55 PM 91.2 °F 90.5 °F 59.4 °F 34% 29.89 in 10.0 mi SSE 11.5 mph 17.3 mph N/A   Clear
3:15 PM 91.2 °F 90.2 °F 58.6 °F 33% 29.88 in 10.0 mi South 16.1 mph 20.7 mph N/A   Clear
3:35 PM 91.6 °F 90.7 °F 58.5 °F 33% 29.88 in 10.0 mi South 16.1 mph 19.6 mph N/A   Clear
3:55 PM 91.4 °F 90.1 °F 57.6 °F 32% 29.88 in 10.0 mi South 16.1 mph 20.7 mph N/A   Clear
4:15 PM 91.6 °F 90.4 °F 57.7 °F 32% 29.87 in 10.0 mi South 15.0 mph 20.7 mph N/A   Clear
4:35 PM 91.6 °F 90.7 °F 58.6 °F 33% 29.87 in 10.0 mi South 12.7 mph 23.0 mph N/A   Clear
4:55 PM 91.6 °F 90.7 °F 58.3 °F 33% 29.87 in 10.0 mi South 15.0 mph 19.6 mph N/A   Clear
5:15 PM 91.4 °F 90.7 °F 59.5 °F 34% 29.87 in 10.0 mi South 13.8 mph 19.6 mph N/A   Clear
5:35 PM 89.4 °F 88.7 °F 59.5 °F 36% 29.86 in 10.0 mi South 15.0 mph 18.4 mph N/A   Clear
5:55 PM 87.1 °F 86.7 °F 60.1 °F 40% 29.87 in 10.0 mi SSE 8.1 mph - N/A   Clear
6:15 PM 85.3 °F 85.9 °F 62.4 °F 46% 29.87 in 10.0 mi SSE 10.4 mph - N/A   Clear
6:35 PM 84.6 °F 85.2 °F 62.4 °F 47% 29.87 in 10.0 mi SSE 8.1 mph - N/A   Clear
6:55 PM 83.8 °F 84.5 °F 62.2 °F 48% 29.88 in 10.0 mi SE 10.4 mph - N/A Thunderstorm Clear
7:15 PM 82.8 °F 83.8 °F 62.8 °F 51% 29.88 in 10.0 mi SE 8.1 mph - N/A   Clear
7:35 PM 81.7 °F 83.0 °F 63.3 °F 54% 29.88 in 10.0 mi SE 6.9 mph - N/A   Clear
8:15 PM 80.2 °F 81.5 °F 62.8 °F 55% 29.88 in 10.0 mi SSE 9.2 mph 16.1 mph N/A   Clear
8:35 PM 79.7 °F - 62.6 °F 56% 29.89 in 10.0 mi SSE 9.2 mph - N/A   Clear
8:55 PM 79.5 °F - 63.0 °F 57% 29.90 in 10.0 mi SSE 9.2 mph 16.1 mph N/A   Clear
9:15 PM 79.2 °F - 63.0 °F 57% 29.91 in 10.0 mi SE 10.4 mph 16.1 mph N/A   Clear
9:35 PM 78.6 °F - 63.1 °F 59% 29.92 in 10.0 mi SE 9.2 mph - N/A   Clear
9:55 PM 77.9 °F - 63.5 °F 61% 29.93 in 10.0 mi ENE 6.9 mph - N/A   Clear
10:15 PM 77.0 °F - 63.1 °F 62% 29.93 in 10.0 mi East 8.1 mph - N/A   Clear
10:35 PM 76.6 °F - 64.0 °F 65% 29.94 in 10.0 mi East 8.1 mph - N/A   Clear
11:15 PM 75.6 °F - 66.4 °F 73% 29.93 in 10.0 mi East 10.4 mph 17.3 mph N/A   Clear
11:35 PM 75.2 °F - 66.7 °F 75% 30.00 in 10.0 mi NW 10.4 mph - N/A Thunderstorm Scattered Clouds
11:55 PM 72.7 °F - 61.7 °F 68% 30.02 in 10.0 mi North 21.9 mph 34.5 mph N/A Rain , Thunderstorm Light Thunderstorms and Rain